Wind_Speed
109 101 90 86 91 93 89 86 83 83 83 81 75 70 70 68 67 68 72 71 71 68 64 62 56 50 46 43 42 51 49 45 42 41 37 34 34 32 31 31 31 29 29 28 28
112 107 97 94 96 86 90 89 87 85 84 82 80 75 71 71 70 65 71 72 70 70 68 64 61 54 50 44 45 46 52 49 47 44 41 36 35 32 32 32 33 32 30 31 30
116 111 107 99 98 94 91 87 88 87 89 84 81 78 74 74 69 69 68 73 73 73 68 68 66 62 56 54 48 45 48 52 49 46 43 38 38 32 32 33 37 36 33 31 31
123 117 115 113 102 84 92 68 89 90 92 86 82 79 76 73 72 71 67 73 75 74 72 68 68 66 64 59 55 49 45 50 52 49 45 42 40 36 36 35 38 40 38 36 33
126 119 117 113 111 101 88 81 82 88 94 91 84 81 78 75 71 70 69 69 77 76 75 70 68 66 67 65 60 56 51 47 51 52 48 44 44 41 41 38 34 39 41 41 40
124 125 119 117 113 107 101 91 94 97 96 91 89 83 82 77 73 72 72 69 75 79 76 74 68 67 68 69 65 60 59 52 45 52 52 49 46 44 43 40 42 38 40 39 43
125 126 124 120 115 114 105 108 101 99 92 89 88 82 79 78 72 71 72 72 71 79 81 78 73 67 68 69 70 66 62 61 55 52 56 54 49 51 45 44 46 41 38 37 35
127 129 126 122 118 114 115 102 107 108 105 96 90 84 78 77 75 72 72 72 72 73 79 80 79 71 70 69 70 71 69 64 62 58 53 55 55 50 49 47 45 47 47 48 44
125 127 130 124 121 117 116 113 102 105 109 103 94 89 83 79 78 76 75 75 72 71 72 78 81 79 74 70 71 70 68 66 67 65 55 51 57 53 51 48 46 47 48 49 49
129 125 129 124 122 120 117 116 112 107 103 105 99 95 84 82 81 80 78 77 76 72 70 71 80 82 79 74 69 71 72 71 70 66 64 59 60 58 54 49 50 53 55 53 50
128 123 123 127 123 118 120 121 121 117 111 102 102 98 94 92 89 85 83 81 79 75 71 71 69 75 81 80 76 71 73 73 68 65 63 63 60 59 59 54 55 58 57 55 49
129 125 124 126 125 123 121 123 125 120 116 111 108 100 97 96 92 89 87 83 81 78 75 72 70 68 76 79 80 74 70 72 74 70 64 63 64 68 63 63 60 60 57 56 56
117 130 126 126 127 124 121 123 125 124 120 116 112 107 104 100 96 92 92 88 84 82 78 75 73 73 68 74 77 79 80 78 75 73 72 67 65 70 68 67 62 63 63 63 65
108 127 130 126 127 126 123 123 123 124 123 119 113 109 107 102 99 97 94 91 87 82 81 77 74 71 71 69 72 79 79 79 80 79 73 71 65 68 70 70 70 68 65 65 64
103 119 130 130 130 129 126 124 123 122 126 122 119 114 110 107 100 97 95 93 91 87 83 80 79 74 70 69 72 69 77 81 79 78 76 74 72 74 76 75 73 72 72 71 69
98 109 127 133 131 127 128 121 124 124 127 125 118 115 111 107 105 102 99 94 94 91 88 82 80 79 76 74 72 72 70 71 73 76 77 74 75 71 74 80 78 77 76 74 71
92 104 120 132 132 131 130 128 125 129 129 123 120 117 113 112 109 105 101 96 94 92 90 84 84 81 80 80 75 72 72 72 71 69 66 68 71 71 69 74 80 81 80 77 72
88 99 112 122 134 132 130 130 130 127 129 124 120 120 117 114 112 108 104 98 95 94 92 89 87 85 83 82 81 79 77 75 72 70 68 68 66 68 70 70 70 72 71 71 71
80 94 104 114 124 132 133 133 134 130 127 126 125 121 120 116 112 109 105 101 100 97 95 94 90 89 89 87 85 81 78 79 75 69 68 67 66 67 68 68 71 72 72 72 72
76 89 99 109 119 129 135 138 133 133 131 127 128 123 117 115 113 108 106 103 102 99 98 97 94 93 91 91 88 86 84 80 75 73 72 69 68 69 69 70 70 72 73 73 73
74 84 94 104 114 123 130 135 134 131 132 129 127 125 118 117 115 112 108 106 103 102 101 100 99 96 93 89 92 92 89 87 85 81 78 75 73 74 74 75 76 76 77 79 80
71 82 89 96 106 114 124 127 129 129 129 129 127 124 119 118 117 116 111 108 107 106 105 103 100 99 98 95 95 94 92 92 91 88 85 84 82 85 85 85 86 85 86 88 89
69 81 88 95 100 107 114 120 123 126 129 128 128 124 120 119 120 118 116 113 110 109 107 105 104 102 103 101 98 97 96 96 96 95 92 92 89 90 91 92 93 93 94 95 95
61 73 84 91 95 102 109 115 120 125 125 127 126 126 122 118 118 120 122 117 113 112 110 107 103 103 100 103 105 103 102 100 98 94 95 94 96 97 97 97 98 98 98 98 98
55 66 78 91 94 100 107 111 114 115 121 128 128 123 122 120 117 118 121 122 119 115 112 110 104 102 103 102 102 105 105 105 102 101 99 98 97 99 100 100 98 97 100 100 99
48 56 64 81 99 104 107 106 110 112 114 116 121 122 121 116 115 115 118 120 122 122 118 114 110 108 105 106 105 104 103 102 102 103 102 105 101 107 106 102 102 104 105 103 106
47 55 67 77 90 100 103 102 105 106 109 112 120 120 115 116 116 119 121 123 124 125 124 119 116 113 108 106 106 103 99 102 103 104 106 105 107 106 107 108 106 106 107 109 109
Wind_Direction
208 200 208 211 214 212 216 219 219 221 221 222 220 219 218 219 222 226 227 222 223 224 224 226 219 213 224 230 236 231 229 231 233 236 236 232 236 239 247 252 258 256 256 259 259
206 207 200 207 214 210 212 218 217 219 221 220 220 219 217 218 220 224 224 225 221 223 222 225 226 224 211 223 231 239 232 230 231 233 234 234 234 238 244 251 256 258 255 256 256
208 205 199 201 213 212 216 219 218 220 219 220 220 220 218 217 218 221 224 224 222 222 222 222 226 228 225 215 223 231 239 235 228 234 234 235 237 239 246 251 252 254 255 256 258
206 207 204 206 204 210 210 214 219 220 220 219 219 221 221 219 218 219 222 224 223 222 222 224 227 229 230 226 220 223 234 241 235 231 234 236 239 242 248 253 251 255 254 254 256
205 205 205 207 206 209 204 204 207 206 216 217 217 218 221 221 219 220 220 223 223 223 222 222 226 228 231 228 227 223 225 235 241 235 232 235 240 241 243 250 259 261 260 256 256
204 206 205 206 209 204 201 200 203 210 217 218 218 218 220 221 220 220 220 222 223 222 223 221 221 225 227 231 229 228 226 224 233 238 237 235 238 243 247 251 254 255 265 267 260
205 205 205 205 207 209 205 206 209 213 217 219 221 219 220 222 222 223 223 223 225 223 223 221 221 226 227 229 231 229 229 231 227 229 237 239 240 244 248 251 253 253 254 259 267
206 206 207 206 206 209 209 208 217 213 220 219 219 220 218 221 221 221 224 224 225 225 224 225 224 224 228 228 231 231 230 231 231 232 232 236 246 247 251 249 249 255 257 256 258
208 206 207 206 207 208 209 208 212 221 218 216 215 216 217 218 220 221 222 225 225 228 227 227 227 225 227 229 230 233 232 232 235 234 231 229 239 244 249 249 249 254 256 258 262
208 207 207 206 207 208 209 211 208 214 222 213 212 214 214 218 219 220 222 223 226 226 228 229 230 229 229 230 231 233 231 236 236 236 237 239 239 242 241 247 252 252 254 256 262
207 208 206 207 208 209 211 211 214 211 212 221 210 212 213 216 217 218 221 222 225 225 227 228 231 232 231 230 229 231 234 234 235 236 238 238 241 247 244 250 247 254 255 258 264
207 208 207 208 208 209 211 211 215 214 214 213 215 212 213 215 217 217 220 222 223 224 225 228 230 232 232 232 230 229 232 236 237 238 239 240 241 247 248 249 251 256 257 256 267
208 207 208 207 208 210 211 213 215 215 216 216 218 213 212 213 215 218 219 222 221 223 225 227 232 232 232 234 232 233 237 238 237 238 240 242 243 247 249 251 255 256 254 258 264
208 208 208 209 208 210 211 214 215 215 217 217 217 216 214 215 216 218 218 221 223 223 225 227 230 235 237 235 237 234 235 237 239 239 240 243 244 247 249 250 251 255 258 260 262
209 207 208 209 210 211 211 214 216 216 218 216 217 217 217 216 217 219 222 221 222 223 225 227 228 231 235 238 238 238 239 240 240 242 244 246 244 252 251 253 254 255 256 259 261
209 207 209 210 211 211 213 214 217 217 218 218 217 217 219 218 219 219 222 222 224 224 224 225 230 232 233 236 238 240 241 240 240 242 243 247 248 249 254 255 256 258 260 261 262
209 208 209 210 212 212 214 213 218 218 219 218 217 218 218 219 219 221 223 223 225 226 226 227 229 230 233 235 237 239 241 241 239 242 242 245 248 251 253 256 258 259 259 260 260
210 208 210 209 213 214 215 216 218 218 219 218 217 218 217 219 219 220 222 224 226 227 227 228 231 231 232 234 235 237 239 241 243 244 246 247 249 250 250 251 256 258 257 257 257
213 209 209 210 211 214 217 218 218 220 219 218 218 217 218 219 220 220 220 223 226 228 228 230 231 233 233 234 236 238 240 242 242 242 245 248 251 251 254 256 256 259 263 264 266
212 211 209 208 210 213 217 219 220 221 221 220 220 218 218 220 221 223 223 223 226 228 229 231 234 235 237 237 236 237 239 243 243 243 246 248 250 252 255 257 259 260 262 265 266
210 213 211 210 212 214 217 220 221 222 223 221 222 221 217 220 221 222 223 224 225 228 229 230 233 235 237 240 240 239 240 241 243 243 245 246 249 253 256 257 258 260 262 263 266
209 210 213 211 214 214 217 220 221 223 225 224 223 223 219 219 221 223 224 226 226 228 229 230 233 235 236 237 240 242 243 243 245 246 247 248 250 253 256 257 258 260 262 264 266
208 209 211 211 213 215 217 219 221 222 225 226 226 224 221 219 221 223 225 226 227 229 230 231 232 235 236 239 240 243 244 245 246 246 248 250 252 254 256 257 258 261 263 265 267
210 211 211 212 212 214 217 219 221 222 225 226 227 225 223 221 221 223 226 227 229 231 232 233 235 237 240 241 241 243 245 248 249 252 252 253 254 255 257 259 259 260 264 266 267
214 208 209 210 212 213 216 219 222 223 222 226 227 228 226 223 223 224 227 229 230 232 234 235 235 238 239 241 243 245 246 247 249 251 253 254 256 258 258 258 261 263 264 265 267
210 207 213 211 210 212 215 217 221 223 227 227 228 228 228 226 224 224 228 228 231 231 233 235 236 237 239 241 243 246 248 250 252 254 254 255 257 259 260 262 262 263 266 269 269
205 208 208 208 212 212 214 216 219 222 226 228 229 228 226 226 224 225 226 229 230 231 233 234 236 238 239 242 244 246 251 252 254 256 256 257 257 260 261 263 265 266 268 270 271
Height
10529 10545 10564 10579 10587 10604 10616 10628 10640 10649 10660 10672 10685 10695 10703 10710 10718 10725 10733 10744 10754 10762 10770 10777 10783 10787 10796 10802 10807 10810 10813 10816 10821 10824 10828 10831 10833 10835 10838 10840 10842 10843 10844 10844 10846
10506 10532 10546 10564 10573 10591 10600 10608 10621 10633 10644 10657 10670 10680 10690 10699 10706 10715 10723 10733 10743 10752 10761 10768 10776 10782 10784 10793 10799 10803 10806 10810 10813 10817 10821 10824 10827 10829 10833 10835 10835 10837 10839 10839 10840
10488 10509 10526 10545 10561 10574 10586 10596 10607 10616 10630 10642 10657 10669 10677 10686 10695 10707 10714 10722 10731 10742 10750 10759 10766 10773 10779 10783 10789 10795 10800 10803 10806 10810 10813 10817 10820 10822 10826 10830 10829 10831 10833 10834 10835
10464 10487 10508 10526 10542 10560 10576 10586 10591 10599 10613 10630 10645 10656 10666 10675 10686 10695 10703 10711 10721 10730 10740 10749 10756 10763 10770 10777 10780 10785 10792 10797 10800 10803 10806 10810 10813 10815 10818 10823 10824 10824 10827 10829 10829
10447 10469 10490 10509 10525 10542 10564 10574 10576 10584 10597 10614 10630 10643 10655 10666 10676 10684 10693 10701 10709 10718 10728 10738 10746 10754 10760 10766 10773 10777 10782 10788 10793 10797 10800 10803 10806 10807 10809 10814 10819 10818 10819 10822 10823
10431 10449 10470 10490 10509 10524 10542 10556 10563 10571 10587 10597 10616 10632 10642 10655 10665 10673 10682 10690 10698 10706 10716 10726 10735 10743 10750 10756 10766 10769 10774 10778 10784 10790 10793 10796 10799 10799 10802 10807 10812 10814 10813 10814 10815
10415 10433 10452 10472 10492 10509 10524 10538 10550 10563 10579 10589 10606 10621 10632 10642 10657 10665 10672 10680 10687 10695 10704 10714 10724 10733 10739 10746 10754 10760 10766 10771 10774 10779 10785 10789 10792 10788 10796 10799 10802 10806 10807 10807 10807
10396 10418 10437 10459 10477 10493 10508 10525 10537 10549 10560 10575 10592 10608 10621 10631 10644 10653 10660 10669 10677 10684 10694 10703 10712 10721 10728 10736 10742 10749 10757 10763 10765 10769 10774 10782 10781 10785 10788 10790 10793 10796 10798 10799 10799
10384 10404 10422 10442 10460 10477 10493 10506 10522 10531 10542 10557 10575 10592 10606 10621 10631 10639 10649 10656 10665 10675 10684 10693 10700 10711 10718 10725 10732 10741 10749 10750 10753 10760 10767 10774 10771 10778 10781 10782 10784 10786 10787 10789 10791
10364 10388 10408 10427 10444 10462 10478 10489 10500 10510 10526 10542 10558 10575 10600 10607 10615 10627 10635 10644 10653 10663 10673 10682 10691 10699 10707 10715 10724 10729 10733 10739 10744 10753 10761 10767 10765 10767 10771 10775 10775 10776 10777 10779 10781
10355 10374 10398 10413 10430 10446 10461 10472 10477 10490 10514 10532 10548 10559 10572 10583 10594 10608 10619 10629 10639 10652 10662 10670 10677 10687 10690 10698 10710 10718 10725 10730 10734 10742 10749 10755 10756 10755 10762 10765 10763 10766 10768 10770 10772
10333 10360 10379 10398 10411 10424 10441 10454 10464 10485 10501 10516 10530 10548 10558 10567 10580 10593 10605 10616 10628 10639 10648 10657 10667 10668 10678 10688 10699 10707 10712 10717 10723 10730 10737 10743 10745 10744 10753 10751 10754 10757 10759 10761 10763
10316 10340 10359 10378 10394 10411 10425 10432 10449 10466 10485 10500 10511 10525 10537 10551 10564 10579 10589 10602 10613 10625 10637 10645 10652 10658 10668 10677 10686 10695 10700 10704 10712 10717 10724 10730 10733 10734 10738 10740 10743 10747 10748 10748 10750
10296 10317 10342 10360 10380 10393 10408 10415 10434 10452 10469 10484 10500 10516 10528 10540 10552 10566 10577 10591 10604 10616 10624 10635 10643 10651 10658 10666 10672 10679 10684 10689 10697 10704 10714 10717 10727 10722 10725 10728 10732 10735 10736 10738 10740
10275 10300 10324 10343 10358 10377 10389 10400 10418 10433 10444 10468 10479 10494 10511 10528 10545 10556 10568 10580 10591 10600 10612 10625 10628 10637 10645 10651 10657 10666 10670 10678 10685 10693 10700 10705 10711 10707 10710 10713 10719 10722 10724 10724 10726
10258 10280 10301 10326 10342 10360 10375 10389 10394 10410 10418 10446 10469 10487 10503 10521 10530 10540 10552 10567 10577 10588 10597 10611 10617 10625 10633 10637 10644 10651 10656 10662 10669 10677 10687 10688 10695 10700 10694 10698 10703 10706 10708 10711 10712
10244 10263 10281 10305 10323 10337 10352 10367 10371 10384 10404 10435 10461 10472 10488 10499 10512 10527 10541 10554 10566 10577 10588 10600 10603 10609 10617 10622 10630 10637 10640 10647 10654 10663 10676 10675 10681 10689 10685 10681 10685 10690 10694 10696 10697
10228 10247 10264 10288 10302 10320 10334 10348 10351 10367 10389 10420 10443 10453 10469 10482 10495 10510 10524 10539 10554 10563 10574 10583 10589 10596 10601 10608 10615 10618 10626 10634 10643 10653 10661 10663 10670 10672 10672 10672 10670 10673 10677 10679 10680
10216 10231 10249 10268 10282 10298 10310 10321 10337 10352 10372 10398 10418 10435 10452 10468 10485 10499 10515 10524 10535 10547 10557 10565 10573 10579 10584 10591 10601 10611 10619 10621 10630 10639 10645 10651 10655 10655 10656 10657 10660 10660 10661 10662 10663
10202 10215 10231 10249 10265 10278 10288 10303 10323 10338 10357 10378 10399 10423 10449 10460 10474 10490 10502 10513 10522 10533 10541 10549 10556 10564 10569 10578 10590 10596 10601 10610 10619 10624 10629 10636 10639 10640 10642 10644 10646 10647 10646 10646 10646
10184 10200 10215 10233 10247 10261 10273 10290 10311 10328 10337 10362 10384 10409 10434 10447 10457 10472 10483 10491 10501 10512 10522 10531 10540 10546 10554 10569 10573 10580 10588 10594 10598 10609 10615 10622 10627 10627 10628 10629 10629 10631 10632 10632 10632
10172 10186 10202 10220 10231 10249 10264 10278 10298 10313 10326 10345 10367 10392 10417 10428 10442 10454 10467 10474 10481 10492 10501 10511 10520 10529 10540 10547 10555 10565 10575 10580 10584 10592 10598 10603 10612 10612 10612 10612 10612 10614 10615 10615 10614
10161 10173 10188 10204 10221 10237 10252 10265 10281 10297 10307 10325 10349 10374 10399 10410 10425 10439 10446 10455 10462 10474 10484 10495 10506 10514 10525 10535 10544 10552 10556 10558 10563 10571 10582 10584 10596 10592 10594 10594 10593 10596 10596 10595 10596
10152 10162 10175 10192 10211 10224 10238 10251 10263 10279 10290 10307 10328 10351 10376 10395 10411 10420 10425 10439 10452 10458 10472 10482 10495 10506 10514 10519 10524 10532 10537 10542 10549 10561 10566 10573 10569 10572 10573 10574 10574 10575 10577 10577 10576
10141 10153 10165 10181 10197 10210 10219 10232 10244 10263 10279 10284 10304 10336 10358 10380 10394 10403 10413 10425 10434 10445 10459 10471 10481 10487 10493 10501 10509 10514 10520 10524 10535 10538 10545 10548 10552 10546 10549 10551 10560 10562 10552 10553 10555
10135 10147 10159 10168 10175 10181 10194 10220 10235 10251 10266 10281 10292 10314 10341 10365 10382 10388 10395 10405 10414 10425 10435 10449 10461 10467 10474 10482 10489 10496 10503 10512 10519 10523 10525 10521 10537 10521 10530 10540 10539 10536 10534 10538 10529
10125 10134 10141 10149 10160 10176 10195 10216 10229 10238 10249 10260 10266 10288 10319 10339 10352 10356 10365 10374 10389 10397 10412 10431 10442 10448 10460 10466 10472 10489 10499 10496 10493 10497 10497 10508 10502 10511 10508 10509 10515 10518 10515 10509 10508